COSMOS 2251 DEB, 34685

Orbit data source: Space-Track

COSMOS 2251 DEB, 34685 is space debris in LEO originally from a launch on Wed, 16 Jun 1993 UTC launched from the Plesetsk Missile And Space Complex (PKMTR). The debris from Iridium 33, an American commercial communications satellite, has been tracked extensively since its accidental collision with the defunct Russian satellite Cosmos 2251 in 2009. This event, occurring at high speed in low Earth orbit (LEO), generated thousands of pieces of space debris, significantly increasing the risk of further collisions. The Iridium 33 debris cloud has impacted space traffic management and orbital debris mitigation strategies, making it a subject of ongoing study in space situational awareness.

Loading next visibility...
Identifier
34685, 1993-036YF
Orbit
LEO
Country
Flag of CISCIS
Related business
Manufacturer
Unknown
Mission
Spacecraft
Bus & Motor
Unknown
Mass
Unknown
Launch date (UTC)
1993-06-16 (33 years ago)
Launch vehicle
Unknown
Launch site
Plesetsk Missile And Space Complex (PKMTR)
Object type
Payload
Rocket body
Debris
Shape & HBR
Unknown shape, 0.1 m
Radar Cross Section
Medium (>0.1 m² and <1 m²)

Expand to show TLE details & history
Last TLE update: 12 hours ago

TLE from 12 hours ago
0 COSMOS 2251 DEB
1 34685U 93036YF  26169.99296266  .00002479  00000-0  53271-3 0  9993
2 34685  74.0282 150.3388 0014964 212.6735 205.2982 14.59055202912765
Epoch: 2026-06-18T23:49Z
TLE epoch observation values (Epoch: 2026-06-18T23:49:51.973Z)
Latitude
54.63834°
Longitude
-90.70611°
Altitude
714.479 km
Speed
7.499 km/s
True Right ascension
11h 35m 57s
True Declination
54° 28' 29"
Sunlit
Object was in daylight at epoch
Visualization orbit readout
Latitude
Unknown
Longitude
Unknown
Altitude
Unknown
Speed
Unknown
Apparent Right ascension
Unknown
Apparent Declination
Unknown
Sunlit
N/A
Visualization observer readout
Local Sidereal Time
22:59:33
Azimuth
Unknown
Elevation
Unknown
Doppler factor
Unknown
Orbital elements
Apogee altitude
704.408 km
Perigee altitude
683.243 km
Semi-major axis
7,071.963 km
Eccentricity
0.0015
Inclination
74.0282°
RAAN
150.3388°
Arg. of periapsis
212.6735°
True anomaly
205.22505°
Mean anomaly
205.2982°
Eccentric anomaly
205.26161°
Mean motion
3.6495 °/min
Orbital period
98.64 mins
BSTAR
0.00053271

Documentation

Showing up to 5 results
|